Regional Weather Roundup
Issued by NWS State College, PA

Home | Current Version | Previous Version | Graphics & Text | Print | Product List | Glossary Off
Versions: 1 2 3 4 5 6 7 8 9 10 11 12 13 14 15 16 17 18 19 20 21 22 23 24 25 26 27 28 29 30 31 32 33 34 35 36 37 38 39 40 41 42 43 44 45 46 47 48 49 50

000
ASUS41 KCTP 030203
RWRCTP

REGIONAL WEATHER ROUNDUP
NATIONAL WEATHER SERVICE STATE COLLEGE PA
900 PM EST FRI DEC 02 2016

Note: "fair" indicates few or no clouds below 12,000 feet with no
significant weather and/or obstructions to visibility.

* = STATION THAT DOES NOT REPORT PRECIPITATION /E.G. RAIN...SNOW...ETC/
    THUNDER OR FOG.

PAZ002>004-007>009-013>016-020>023-029>032-030300-
WESTERN PENNSYLVANIA

CITY           SKY/WX    TMP DP  RH WIND       PRES   REMARKS
ERIE           CLOUDY    41  31  67 W16G31    30.09R
MEADVILLE      CLOUDY    35  29  78 W12       30.08R
FRANKLIN*        N/A     34  28  80 W12       30.09S
NEW CASTLE     CLOUDY    36  33  89 W10       30.14R
BEAVER COUNTY  CLOUDY    36  32  87 W9        30.13S
BUTLER*        CLOUDY    36  30  80 W9        30.15R
PITTSBURGH INT CLOUDY    37  32  82 W8        30.13S
PITTSBURGH     CLOUDY    36  29  75 W14G20    30.13R
INDIANA*       CLOUDY    36  32  87 W10G17    30.12R
LATROBE        CLOUDY    36  32  87 SW10G20   30.14R
WASHINGTON CO* CLOUDY    36  28  75 W9G16     30.17R
$$

PAZ004>006-010>012-017>019-024>028-033>037-041-042-045-046-049>053-030300-
CENTRAL PENNSYLVANIA

CITY           SKY/WX    TMP DP  RH WIND       PRES   REMARKS
BRADFORD       LGT SNOW  32  30  92 W14G23    29.96R FOG
DUBOIS         CLOUDY    34  29  82 W15G29    30.02R
CLEARFIELD     CLOUDY    35  31  85 W9G18     30.03R
JOHNSTOWN      CLOUDY    32  29  88 W15G26    30.03R
ALTOONA        CLOUDY    38  28  67 NW16G22   30.04S
STATE COLLEGE  NOT AVBL
WILLIAMSPORT   CLOUDY    40  34  79 W10       29.97R
SELINSGROVE    CLOUDY    42  32  67 W13G21    30.00S
FT INDIANTOWN  CLOUDY    42  29  58 SW12G25   29.99R
CAPITAL CITY   CLOUDY    43  27  53 W13       30.02R
HARRISBURG     CLOUDY    43  30  60 W10       30.01S
YORK           CLOUDY    41  29  62 W8        30.03S
$$

PAZ038>040-043-044-047-048-054-055-060>062-067>071-030300-
EASTERN PENNSYLVANIA

CITY           SKY/WX    TMP DP  RH WIND       PRES   REMARKS
SCRANTON       CLOUDY    40  31  70 W13       29.91S
MOUNT POCONO   FLURRIES  34  28  79 W17G25    29.86S
ALLENTOWN      CLOUDY    43  28  55 W13       29.95R
QUAKERTOWN*    CLOUDY    41  28  60 W7G17     29.96R
READING        CLOUDY    43  28  55 W12       29.98R
LANCASTER      CLOUDY    42  31  64 W14       30.00S
COATESVILLE    CLOUDY    41  28  60 W7G14     30.00S
POTTSTOWN      CLOUDY    42  28  57 W8        29.99S
BLUE BELL      CLOUDY    41  30  65 W8        29.97S
DOYLESTOWN     MOCLDY    43  29  57 W9        29.95S
WILLOW GROVE   NOT AVBL
NORTH PHILA    CLOUDY    45  29  53 W16G24    29.99S
PHILADELPHIA   CLOUDY    44  28  53 W16       30.01S
$$




USA.gov is the U.S. government's official web portal to all federal, state and local government web resources and services.